| time (UTC) | temp F | wind direction | speed MPH | gust MPH | rain 1hr in | rain 24hr in | rain mn in | humidity % | barometer mb |
| 20260509130827 | 61 | 114 | 1.0 | 3.0 | 0.00 | 0.00 | 0.00 | 77 | 1014.4 |
| 20260509130323 | 61 | 127 | 3.0 | 3.0 | 0.00 | 0.00 | 0.00 | 77 | 1014.4 |
| 20260509125819 | 61 | 130 | 2.0 | 2.0 | 0.00 | 0.00 | 0.00 | 77 | 1014.2 |
| 20260509125316 | 60 | 151 | 2.0 | 3.0 | 0.00 | 0.00 | 0.00 | 78 | 1014.1 |
| 20260509124812 | 60 | 128 | 2.0 | 3.0 | 0.00 | 0.00 | 0.00 | 78 | 1014.3 |
| 20260509124309 | 60 | 103 | 1.0 | 2.0 | 0.00 | 0.00 | 0.00 | 79 | 1014.1 |
| 20260509123808 | 59 | 109 | 1.0 | 3.0 | 0.00 | 0.00 | 0.00 | 80 | 1014.2 |
| 20260509123304 | 59 | 152 | 2.0 | 3.0 | 0.00 | 0.00 | 0.00 | 81 | 1014.4 |
| 20260509122800 | 59 | 125 | 2.0 | 3.0 | 0.00 | 0.00 | 0.00 | 82 | 1014.3 |
| 20260509122257 | 58 | 141 | 2.0 | 2.0 | 0.00 | 0.00 | 0.00 | 83 | 1014.4 |
| 20260509121754 | 58 | 110 | 2.0 | 3.0 | 0.00 | 0.00 | 0.00 | 83 | 1014.7 |
| 20260509121251 | 58 | 173 | 2.0 | 3.0 | 0.00 | 0.00 | 0.00 | 84 | 1014.5 |
| 20260509120749 | 57 | 139 | 2.0 | 2.0 | 0.00 | 0.00 | 0.00 | 84 | 1014.7 |
| 20260509120247 | 57 | 146 | 1.0 | 3.0 | 0.00 | 0.00 | 0.00 | 85 | 1014.9 |
| 20260509115745 | 57 | 126 | 1.0 | 2.0 | 0.00 | 0.00 | 0.00 | 85 | 1014.5 |
| 20260509115241 | 56 | 141 | 0.0 | 3.0 | 0.00 | 0.00 | 0.00 | 86 | 1014.8 |
| 20260509114740 | 56 | 136 | 1.0 | 2.0 | 0.00 | 0.00 | 0.00 | 87 | 1014.5 |
| 20260509114238 | 55 | 119 | 1.0 | 3.0 | 0.00 | 0.00 | 0.00 | 88 | 1014.4 |
| 20260509113737 | 55 | 127 | 2.0 | 3.0 | 0.00 | 0.00 | 0.00 | 89 | 1014.4 |
| 20260509113233 | 54 | 154 | 2.0 | 3.0 | 0.00 | 0.00 | 0.00 | 90 | 1014.5 |
| 20260509112730 | 54 | 152 | 1.0 | 2.0 | 0.00 | 0.00 | 0.00 | 91 | 1014.4 |
| 20260509112227 | 53 | 161 | 2.0 | 3.0 | 0.00 | 0.00 | 0.00 | 91 | 1014.4 |
| 20260509111724 | 53 | 149 | 2.0 | 3.0 | 0.00 | 0.00 | 0.00 | 91 | 1014.6 |
| 20260509111221 | 52 | 149 | 2.0 | 2.0 | 0.00 | 0.00 | 0.00 | 91 | 1014.3 |
| 20260509110718 | 52 | 152 | 2.0 | 2.0 | 0.00 | 0.00 | 0.00 | 91 | 1014.4 |
| 20260509110215 | 52 | 149 | 2.0 | 3.0 | 0.00 | 0.00 | 0.00 | 92 | 1014.4 |
| 20260509105713 | 51 | 161 | 2.0 | 3.0 | 0.00 | 0.00 | 0.00 | 92 | 1014.4 |
| 20260509105210 | 51 | 149 | 2.0 | 2.0 | 0.00 | 0.00 | 0.00 | 92 | 1014.6 |
| 20260509104707 | 51 | 153 | 2.0 | 2.0 | 0.00 | 0.00 | 0.00 | 93 | 1014.3 |
| 20260509104204 | 51 | 175 | 2.0 | 3.0 | 0.00 | 0.00 | 0.00 | 93 | 1014.2 |
| 20260509103702 | 50 | 147 | 2.0 | 2.0 | 0.00 | 0.00 | 0.00 | 93 | 1014.3 |
| 20260509103159 | 50 | 140 | 2.0 | 2.0 | 0.00 | 0.00 | 0.00 | 93 | 1014.5 |
| 20260509102657 | 50 | 151 | 2.0 | 2.0 | 0.00 | 0.00 | 0.00 | 93 | 1014.3 |
| 20260509102154 | 50 | 149 | 2.0 | 2.0 | 0.00 | 0.00 | 0.00 | 93 | 1014.5 |
| 20260509101650 | 50 | 140 | 2.0 | 3.0 | 0.00 | 0.00 | 0.00 | 93 | 1014.4 |
| 20260509101147 | 50 | 144 | 2.0 | 2.0 | 0.00 | 0.00 | 0.00 | 92 | 1014.4 |
| 20260509100645 | 50 | 151 | 2.0 | 2.0 | 0.00 | 0.00 | 0.00 | 92 | 1014.2 |
| 20260509100141 | 50 | 147 | 2.0 | 2.0 | 0.00 | 0.00 | 0.00 | 92 | 1014.3 |
| 20260509095638 | 50 | 146 | 2.0 | 2.0 | 0.00 | 0.00 | 0.00 | 91 | 1014.4 |
| 20260509095135 | 50 | 142 | 2.0 | 2.0 | 0.00 | 0.00 | 0.00 | 90 | 1014.5 |
| 20260509094631 | 50 | 147 | 2.0 | 2.0 | 0.00 | 0.00 | 0.00 | 90 | 1014.2 |
| 20260509094129 | 51 | 155 | 2.0 | 3.0 | 0.00 | 0.00 | 0.00 | 90 | 1014.7 |
| 20260509093627 | 51 | 139 | 2.0 | 2.0 | 0.00 | 0.00 | 0.00 | 89 | 1014.3 |
| 20260509093124 | 51 | 143 | 2.0 | 2.0 | 0.00 | 0.00 | 0.00 | 89 | 1014.5 |
| 20260509092622 | 51 | 152 | 2.0 | 2.0 | 0.00 | 0.00 | 0.00 | 88 | 1014.4 |
| 20260509092120 | 51 | 151 | 2.0 | 2.0 | 0.00 | 0.00 | 0.00 | 87 | 1014.7 |
| 20260509091618 | 51 | 159 | 2.0 | 2.0 | 0.00 | 0.00 | 0.00 | 87 | 1014.5 |
| 20260509091113 | 52 | 143 | 2.0 | 3.0 | 0.00 | 0.00 | 0.00 | 86 | 1014.5 |
| 20260509090611 | 52 | 141 | 2.0 | 2.0 | 0.00 | 0.00 | 0.00 | 85 | 1014.5 |
| 20260509090109 | 52 | 147 | 1.0 | 2.0 | 0.00 | 0.00 | 0.00 | 82 | 1014.6 |
| 20260509085606 | 53 | 155 | 2.0 | 2.0 | 0.00 | 0.00 | 0.00 | 81 | 1014.8 |
| 20260509085102 | 53 | 150 | 2.0 | 2.0 | 0.00 | 0.00 | 0.00 | 80 | 1014.5 |
| 20260509084559 | 53 | 154 | 2.0 | 2.0 | 0.00 | 0.00 | 0.00 | 80 | 1014.5 |
| 20260509084056 | 53 | 154 | 2.0 | 2.0 | 0.00 | 0.00 | 0.00 | 80 | 1014.3 |
| 20260509083554 | 53 | 175 | 2.0 | 2.0 | 0.00 | 0.00 | 0.00 | 81 | 1014.3 |
| 20260509083050 | 53 | 158 | 2.0 | 2.0 | 0.00 | 0.00 | 0.00 | 83 | 1014.3 |
| 20260509082548 | 53 | 160 | 2.0 | 3.0 | 0.00 | 0.00 | 0.00 | 82 | 1014.3 |
| 20260509082044 | 53 | 145 | 2.0 | 2.0 | 0.00 | 0.00 | 0.00 | 80 | 1014.2 |
| 20260509081542 | 53 | 159 | 2.0 | 2.0 | 0.00 | 0.00 | 0.00 | 79 | 1014.3 |
| 20260509081038 | 53 | 158 | 2.0 | 3.0 | 0.00 | 0.00 | 0.00 | 79 | 1014.3 |
| 20260509080536 | 53 | 114 | 1.0 | 2.0 | 0.00 | 0.00 | 0.00 | 80 | 1014.2 |
| 20260509080034 | 53 | 151 | 2.0 | 2.0 | 0.00 | 0.00 | 0.00 | 81 | 1014.2 |
| 20260509075531 | 53 | 122 | 1.0 | 2.0 | 0.00 | 0.00 | 0.00 | 81 | 1014.4 |
| 20260509075029 | 53 | 153 | 2.0 | 2.0 | 0.00 | 0.00 | 0.00 | 79 | 1014.3 |
| 20260509074526 | 53 | 148 | 2.0 | 2.0 | 0.00 | 0.00 | 0.00 | 79 | 1014.5 |
| 20260509074023 | 53 | 169 | 2.0 | 3.0 | 0.00 | 0.00 | 0.00 | 78 | 1014.6 |
| 20260509073519 | 53 | 143 | 2.0 | 2.0 | 0.00 | 0.00 | 0.00 | 79 | 1014.6 |
| 20260509073016 | 53 | 218 | 3.0 | 3.0 | 0.00 | 0.00 | 0.00 | 79 | 1014.6 |
| 20260509072512 | 53 | 151 | 2.0 | 2.0 | 0.00 | 0.00 | 0.00 | 80 | 1014.6 |
| 20260509072009 | 52 | 154 | 2.0 | 3.0 | 0.00 | 0.00 | 0.00 | 80 | 1014.6 |
| 20260509071506 | 51 | 157 | 2.0 | 2.0 | 0.00 | 0.00 | 0.00 | 83 | 1014.9 |
| 20260509071003 | 51 | 153 | 2.0 | 3.0 | 0.00 | 0.00 | 0.00 | 84 | 1014.6 |
| 20260509070500 | 50 | 146 | 2.0 | 3.0 | 0.00 | 0.00 | 0.00 | 85 | 1014.8 |
| 20260509065956 | 50 | 146 | 3.0 | 3.0 | 0.00 | 0.00 | 0.00 | 86 | 1014.8 |
| 20260509065452 | 50 | 168 | 1.0 | 3.0 | 0.00 | 0.00 | 0.00 | 87 | 1015.1 |
| 20260509064948 | 50 | 137 | 1.0 | 2.0 | 0.00 | 0.00 | 0.00 | 87 | 1015.1 |
| 20260509064446 | 50 | 167 | 2.0 | 3.0 | 0.00 | 0.00 | 0.00 | 87 | 1015.4 |
| 20260509063944 | 50 | 148 | 2.0 | 3.0 | 0.00 | 0.00 | 0.00 | 87 | 1015.1 |
| 20260509063445 | 50 | 139 | 2.0 | 3.0 | 0.00 | 0.00 | 0.00 | 86 | 1015.5 |
| 20260509062942 | 51 | 147 | 2.0 | 2.0 | 0.00 | 0.00 | 0.00 | 86 | 1015.4 |
| 20260509062439 | 51 | 158 | 2.0 | 3.0 | 0.00 | 0.00 | 0.00 | 85 | 1015.5 |
| 20260509061937 | 51 | 146 | 2.0 | 3.0 | 0.00 | 0.00 | 0.00 | 85 | 1015.7 |
| 20260509061434 | 51 | 154 | 2.0 | 2.0 | 0.00 | 0.00 | 0.00 | 84 | 1015.8 |
| 20260509060931 | 51 | 143 | 2.0 | 2.0 | 0.00 | 0.00 | 0.00 | 83 | 1015.9 |
| 20260509060428 | 51 | 151 | 2.0 | 2.0 | 0.00 | 0.00 | 0.00 | 82 | 1015.9 |
| 20260509055923 | 51 | 147 | 2.0 | 2.0 | 0.00 | 0.00 | 0.00 | 82 | 1015.8 |
| 20260509055419 | 51 | 149 | 2.0 | 2.0 | 0.00 | 0.00 | 0.00 | 83 | 1016.0 |
| 20260509054916 | 51 | 147 | 2.0 | 2.0 | 0.00 | 0.00 | 0.00 | 82 | 1015.7 |
| 20260509054413 | 51 | 149 | 2.0 | 3.0 | 0.00 | 0.00 | 0.00 | 82 | 1015.7 |
| 20260509053911 | 51 | 153 | 1.0 | 2.0 | 0.00 | 0.00 | 0.00 | 81 | 1015.8 |
| 20260509053408 | 51 | 136 | 2.0 | 3.0 | 0.00 | 0.00 | 0.00 | 81 | 1015.8 |
| 20260509052906 | 52 | 154 | 2.0 | 3.0 | 0.00 | 0.00 | 0.00 | 81 | 1015.7 |
| 20260509052403 | 52 | 160 | 2.0 | 3.0 | 0.00 | 0.00 | 0.00 | 81 | 1015.4 |
| 20260509051901 | 52 | 150 | 2.0 | 2.0 | 0.00 | 0.00 | 0.00 | 79 | 1015.6 |
| 20260509051359 | 52 | 155 | 2.0 | 2.0 | 0.00 | 0.00 | 0.00 | 79 | 1015.2 |
| 20260509050855 | 53 | 166 | 2.0 | 2.0 | 0.00 | 0.00 | 0.00 | 78 | 1015.4 |
| 20260509050352 | 53 | 161 | 2.0 | 2.0 | 0.00 | 0.00 | 0.00 | 78 | 1015.2 |
| 20260509045849 | 53 | 156 | 2.0 | 2.0 | 0.00 | 0.00 | 0.00 | 77 | 1015.3 |
| 20260509045346 | 53 | 147 | 2.0 | 3.0 | 0.00 | 0.00 | 0.00 | 76 | 1015.4 |
| 20260509044843 | 54 | 151 | 2.0 | 3.0 | 0.00 | 0.00 | 0.00 | 76 | 1015.1 |
| 20260509044341 | 54 | 157 | 2.0 | 2.0 | 0.00 | 0.00 | 0.00 | 72 | 1015.2 |
| 20260509043837 | 54 | 150 | 2.0 | 2.0 | 0.00 | 0.00 | 0.00 | 71 | 1015.3 |
| 20260509043333 | 55 | 156 | 2.0 | 2.0 | 0.00 | 0.00 | 0.00 | 73 | 1015.3 |
| 20260509042829 | 55 | 148 | 2.0 | 2.0 | 0.00 | 0.00 | 0.00 | 67 | 1015.1 |
| 20260509042325 | 55 | 139 | 1.0 | 2.0 | 0.00 | 0.00 | 0.00 | 69 | 1015.4 |
| 20260509041822 | 55 | 152 | 2.0 | 2.0 | 0.00 | 0.00 | 0.00 | 70 | 1015.3 |
| 20260509041319 | 56 | 152 | 2.0 | 2.0 | 0.00 | 0.00 | 0.00 | 74 | 1015.4 |
| 20260509040818 | 56 | 143 | 2.0 | 2.0 | 0.00 | 0.00 | 0.00 | 71 | 1015.5 |
| 20260509040315 | 56 | 144 | 2.0 | 2.0 | 0.00 | 0.00 | 0.00 | 68 | 1015.4 |
| 20260509035812 | 56 | 152 | 2.0 | 2.0 | 0.00 | 0.00 | 0.00 | 68 | 1015.3 |
| 20260509035309 | 56 | 149 | 2.0 | 2.0 | 0.00 | 0.00 | 0.00 | 67 | 1015.3 |
| 20260509034805 | 56 | 152 | 2.0 | 2.0 | 0.00 | 0.00 | 0.00 | 65 | 1015.6 |
| 20260509034303 | 56 | 157 | 1.0 | 2.0 | 0.00 | 0.00 | 0.00 | 65 | 1015.5 |
| 20260509033759 | 56 | 146 | 2.0 | 2.0 | 0.00 | 0.00 | 0.00 | 67 | 1015.7 |
| 20260509033257 | 56 | 149 | 2.0 | 2.0 | 0.00 | 0.00 | 0.00 | 69 | 1015.7 |
| 20260509032754 | 56 | 138 | 1.0 | 2.0 | 0.00 | 0.00 | 0.00 | 73 | 1015.6 |
| 20260509032250 | 56 | 145 | 2.0 | 2.0 | 0.00 | 0.00 | 0.00 | 66 | 1015.8 |
| 20260509031748 | 56 | 146 | 2.0 | 2.0 | 0.00 | 0.00 | 0.00 | 69 | 1016.1 |
| 20260509031245 | 56 | 144 | 1.0 | 2.0 | 0.00 | 0.00 | 0.00 | 70 | 1015.7 |
| 20260509030743 | 56 | 162 | 2.0 | 2.0 | 0.00 | 0.00 | 0.00 | 66 | 1015.7 |
| 20260509030241 | 56 | 157 | 2.0 | 2.0 | 0.00 | 0.00 | 0.00 | 66 | 1015.9 |
| 20260509025737 | 56 | 161 | 2.0 | 2.0 | 0.00 | 0.00 | 0.00 | 63 | 1015.5 |
| 20260509025233 | 56 | 160 | 1.0 | 2.0 | 0.00 | 0.00 | 0.00 | 70 | 1015.5 |
| 20260509024728 | 56 | 161 | 1.0 | 2.0 | 0.00 | 0.00 | 0.00 | 70 | 1015.9 |
| 20260509024224 | 56 | 148 | 2.0 | 2.0 | 0.00 | 0.00 | 0.00 | 70 | 1015.6 |
| 20260509023722 | 56 | 139 | 1.0 | 2.0 | 0.00 | 0.00 | 0.00 | 71 | 1015.8 |
| 20260509023219 | 56 | 154 | 2.0 | 2.0 | 0.00 | 0.00 | 0.00 | 70 | 1015.8 |
| 20260509022715 | 56 | 160 | 2.0 | 2.0 | 0.00 | 0.00 | 0.00 | 68 | 1015.8 |
| 20260509022213 | 56 | 148 | 2.0 | 2.0 | 0.00 | 0.00 | 0.00 | 61 | 1015.8 |
| 20260509021710 | 56 | 161 | 2.0 | 2.0 | 0.00 | 0.00 | 0.00 | 60 | 1015.7 |
| 20260509021207 | 56 | 150 | 2.0 | 2.0 | 0.00 | 0.00 | 0.00 | 63 | 1015.7 |
| 20260509020705 | 56 | 144 | 2.0 | 2.0 | 0.00 | 0.00 | 0.00 | 68 | 1015.8 |
| 20260509020202 | 57 | 154 | 2.0 | 2.0 | 0.00 | 0.00 | 0.00 | 72 | 1015.7 |
| 20260509015700 | 57 | 144 | 2.0 | 2.0 | 0.00 | 0.00 | 0.00 | 69 | 1015.4 |
| 20260509015158 | 57 | 159 | 1.0 | 2.0 | 0.00 | 0.00 | 0.00 | 65 | 1015.3 |
| 20260509014654 | 58 | 149 | 2.0 | 2.0 | 0.00 | 0.00 | 0.00 | 68 | 1015.4 |
| 20260509014150 | 58 | 149 | 2.0 | 2.0 | 0.00 | 0.00 | 0.00 | 70 | 1015.7 |
| 20260509013648 | 58 | 139 | 2.0 | 2.0 | 0.00 | 0.00 | 0.00 | 61 | 1015.6 |
| 20260509013143 | 58 | 146 | 2.0 | 3.0 | 0.00 | 0.00 | 0.00 | 57 | 1015.5 |
| 20260509012640 | 58 | 150 | 2.0 | 2.0 | 0.00 | 0.00 | 0.00 | 64 | 1015.5 |
| 20260509012137 | 59 | 144 | 2.0 | 3.0 | 0.00 | 0.00 | 0.00 | 61 | 1015.5 |
| 20260509011635 | 59 | 144 | 2.0 | 2.0 | 0.00 | 0.00 | 0.00 | 61 | 1015.2 |
| 20260509011132 | 59 | 137 | 2.0 | 2.0 | 0.00 | 0.00 | 0.00 | 63 | 1015.2 |
| 20260509010630 | 59 | 136 | 2.0 | 2.0 | 0.00 | 0.00 | 0.00 | 64 | 1015.1 |
| 20260509010126 | 59 | 140 | 2.0 | 2.0 | 0.00 | 0.00 | 0.00 | 59 | 1015.1 |
| 20260509005624 | 60 | 149 | 2.0 | 2.0 | 0.00 | 0.00 | 0.00 | 65 | 1015.1 |
| 20260509005120 | 60 | 136 | 1.0 | 3.0 | 0.00 | 0.00 | 0.00 | 62 | 1015.0 |
| 20260509004616 | 60 | 145 | 2.0 | 2.0 | 0.00 | 0.00 | 0.00 | 56 | 1015.0 |
| 20260509004113 | 61 | 161 | 2.0 | 2.0 | 0.00 | 0.00 | 0.00 | 55 | 1015.3 |
| 20260509003611 | 61 | 147 | 2.0 | 2.0 | 0.00 | 0.00 | 0.00 | 66 | 1015.1 |
| 20260509003108 | 62 | 151 | 2.0 | 2.0 | 0.00 | 0.00 | 0.00 | 59 | 1015.1 |
| 20260509002606 | 62 | 133 | 1.0 | 2.0 | 0.00 | 0.00 | 0.00 | 50 | 1015.1 |
| 20260509002103 | 63 | 156 | 2.0 | 2.0 | 0.00 | 0.00 | 0.00 | 53 | 1015.1 |
| 20260509001600 | 63 | 157 | 2.0 | 2.0 | 0.00 | 0.00 | 0.00 | 48 | 1015.0 |
| 20260509001056 | 64 | 152 | 2.0 | 2.0 | 0.00 | 0.00 | 0.00 | 52 | 1014.9 |
| 20260509000555 | 64 | 148 | 2.0 | 2.0 | 0.00 | 0.00 | 0.00 | 46 | 1015.2 |
| 20260509000050 | 65 | 150 | 2.0 | 2.0 | 0.00 | 0.00 | 0.00 | 45 | 1015.0 |
| 20260508235548 | 65 | 152 | 2.0 | 2.0 | 0.00 | 0.00 | 0.00 | 43 | 1015.0 |
| 20260508235044 | 66 | 137 | 1.0 | 2.0 | 0.00 | 0.00 | 0.00 | 41 | 1015.0 |
| 20260508234542 | 66 | 139 | 2.0 | 2.0 | 0.00 | 0.00 | 0.00 | 43 | 1014.8 |
| 20260508234038 | 67 | 130 | 2.0 | 2.0 | 0.00 | 0.00 | 0.00 | 41 | 1014.4 |
| 20260508233538 | 67 | 155 | 2.0 | 2.0 | 0.00 | 0.00 | 0.00 | 42 | 1014.7 |
| 20260508233035 | 67 | 154 | 2.0 | 2.0 | 0.00 | 0.00 | 0.00 | 40 | 1014.6 |
| 20260508232531 | 68 | 123 | 1.0 | 2.0 | 0.00 | 0.00 | 0.00 | 38 | 1014.6 |
| 20260508232029 | 68 | 155 | 2.0 | 2.0 | 0.00 | 0.00 | 0.00 | 41 | 1014.5 |
| 20260508231526 | 68 | 148 | 2.0 | 3.0 | 0.00 | 0.00 | 0.00 | 38 | 1014.3 |
| 20260508231023 | 68 | 146 | 1.0 | 2.0 | 0.00 | 0.00 | 0.00 | 38 | 1014.3 |
| 20260508230520 | 69 | 151 | 2.0 | 3.0 | 0.00 | 0.00 | 0.00 | 38 | 1014.5 |
| 20260508230017 | 69 | 140 | 1.0 | 3.0 | 0.00 | 0.00 | 0.00 | 35 | 1014.2 |
| 20260508225514 | 69 | 165 | 1.0 | 2.0 | 0.00 | 0.00 | 0.00 | 35 | 1014.5 |
| 20260508225010 | 70 | 133 | 3.0 | 3.0 | 0.00 | 0.00 | 0.00 | 36 | 1014.4 |
| 20260508224508 | 70 | 118 | 1.0 | 2.0 | 0.00 | 0.00 | 0.00 | 33 | 1014.3 |
| 20260508224005 | 70 | 155 | 1.0 | 2.0 | 0.00 | 0.00 | 0.00 | 33 | 1014.2 |
| 20260508223503 | 70 | 161 | 2.0 | 2.0 | 0.00 | 0.00 | 0.00 | 33 | 1014.3 |
| 20260508223000 | 70 | 82 | 2.0 | 3.0 | 0.00 | 0.00 | 0.00 | 32 | 1014.5 |
| 20260508222458 | 71 | 104 | 1.0 | 2.0 | 0.00 | 0.00 | 0.00 | 31 | 1014.3 |
| 20260508221954 | 73 | 170 | 1.0 | 2.0 | 0.00 | 0.00 | 0.00 | 29 | 1014.4 |
| 20260508221450 | 73 | 177 | 1.0 | 2.0 | 0.00 | 0.00 | 0.00 | 31 | 1014.5 |
| 20260508220946 | 72 | 128 | 3.0 | 3.0 | 0.00 | 0.00 | 0.00 | 30 | 1014.5 |
| 20260508220443 | 72 | 143 | 2.0 | 2.0 | 0.00 | 0.00 | 0.00 | 32 | 1014.6 |
| 20260508215939 | 72 | 143 | 1.0 | 2.0 | 0.00 | 0.00 | 0.00 | 30 | 1014.7 |
| 20260508215436 | 73 | 130 | 2.0 | 2.0 | 0.00 | 0.00 | 0.00 | 31 | 1014.6 |
| 20260508214932 | 72 | 155 | 2.0 | 3.0 | 0.00 | 0.00 | 0.00 | 33 | 1014.7 |
| 20260508214431 | 71 | 156 | 1.0 | 2.0 | 0.00 | 0.00 | 0.00 | 30 | 1014.7 |
| 20260508213926 | 71 | 93 | 1.0 | 2.0 | 0.00 | 0.00 | 0.00 | 33 | 1014.8 |
| 20260508213424 | 71 | 180 | 2.0 | 2.0 | 0.00 | 0.00 | 0.00 | 30 | 1014.9 |
| 20260508212919 | 71 | 132 | 1.0 | 2.0 | 0.00 | 0.00 | 0.00 | 31 | 1014.8 |
| 20260508212416 | 71 | 40 | 1.0 | 2.0 | 0.00 | 0.00 | 0.00 | 31 | 1014.6 |
| 20260508211912 | 72 | 133 | 1.0 | 2.0 | 0.00 | 0.00 | 0.00 | 32 | 1014.7 |
| 20260508211408 | 72 | 136 | 2.0 | 3.0 | 0.00 | 0.00 | 0.00 | 32 | 1014.7 |
| 20260508210906 | 72 | 118 | 2.0 | 3.0 | 0.00 | 0.00 | 0.00 | 31 | 1014.7 |
| 20260508210402 | 73 | 179 | 2.0 | 2.0 | 0.00 | 0.00 | 0.00 | 30 | 1014.7 |
| 20260508205858 | 73 | 158 | 3.0 | 4.0 | 0.00 | 0.00 | 0.00 | 29 | 1014.6 |
| 20260508205355 | 72 | 133 | 3.0 | 3.0 | 0.00 | 0.00 | 0.00 | 31 | 1014.8 |
| 20260508204851 | 72 | 117 | 1.0 | 2.0 | 0.00 | 0.00 | 0.00 | 30 | 1014.8 |
| 20260508204348 | 71 | 184 | 2.0 | 4.0 | 0.00 | 0.00 | 0.00 | 30 | 1014.7 |
| 20260508203844 | 71 | 155 | 1.0 | 2.0 | 0.00 | 0.00 | 0.00 | 31 | 1014.9 |
| 20260508203340 | 72 | 265 | 0.0 | 3.0 | 0.00 | 0.00 | 0.00 | 31 | 1014.9 |
| 20260508202836 | 72 | 78 | 0.0 | 2.0 | 0.00 | 0.00 | 0.00 | 30 | 1014.8 |
| 20260508202334 | 72 | 174 | 2.0 | 3.0 | 0.00 | 0.00 | 0.00 | 33 | 1015.0 |
| 20260508201831 | 72 | 160 | 2.0 | 3.0 | 0.00 | 0.00 | 0.00 | 31 | 1014.9 |
| 20260508201328 | 72 | 165 | 0.0 | 3.0 | 0.00 | 0.00 | 0.00 | 33 | 1015.1 |
| 20260508200824 | 72 | 80 | 0.0 | 3.0 | 0.00 | 0.00 | 0.00 | 32 | 1014.9 |
| 20260508200321 | 72 | 251 | 2.0 | 3.0 | 0.00 | 0.00 | 0.00 | 29 | 1015.2 |
| 20260508195817 | 73 | 182 | 1.0 | 2.0 | 0.00 | 0.00 | 0.00 | 29 | 1015.0 |
| 20260508195314 | 73 | 177 | 1.0 | 2.0 | 0.00 | 0.00 | 0.00 | 30 | 1015.2 |
| 20260508194810 | 73 | 118 | 0.0 | 3.0 | 0.00 | 0.00 | 0.00 | 32 | 1015.2 |
| 20260508194307 | 72 | 160 | 1.0 | 2.0 | 0.00 | 0.00 | 0.00 | 31 | 1015.3 |
| 20260508193804 | 71 | 121 | 2.0 | 3.0 | 0.00 | 0.00 | 0.00 | 30 | 1015.5 |
| 20260508193301 | 73 | 79 | 0.0 | 3.0 | 0.00 | 0.00 | 0.00 | 30 | 1015.5 |
| 20260508192757 | 73 | 202 | 0.0 | 2.0 | 0.00 | 0.00 | 0.00 | 31 | 1015.6 |
| 20260508192254 | 72 | 210 | 1.0 | 4.0 | 0.00 | 0.00 | 0.00 | 33 | 1015.7 |
| 20260508191751 | 72 | 135 | 2.0 | 5.0 | 0.00 | 0.00 | 0.00 | 31 | 1015.8 |
| 20260508191249 | 71 | 74 | 0.0 | 2.0 | 0.00 | 0.00 | 0.00 | 30 | 1015.5 |
| 20260508190746 | 73 | 133 | 4.0 | 5.0 | 0.00 | 0.00 | 0.00 | 30 | 1015.9 |
| 20260508190242 | 73 | 205 | 5.0 | 5.0 | 0.00 | 0.00 | 0.00 | 29 | 1016.1 |
| 20260508185738 | 72 | 254 | 0.0 | 2.0 | 0.00 | 0.00 | 0.00 | 30 | 1016.3 |
| 20260508185236 | 71 | 176 | 1.0 | 1.0 | 0.00 | 0.00 | 0.00 | 33 | 1016.5 |
| 20260508184733 | 70 | 155 | 3.0 | 3.0 | 0.00 | 0.00 | 0.00 | 32 | 1016.1 |
| 20260508184230 | 71 | 180 | 0.0 | 2.0 | 0.00 | 0.00 | 0.00 | 30 | 1016.4 |
| 20260508183727 | 71 | 81 | 2.0 | 5.0 | 0.00 | 0.00 | 0.00 | 33 | 1016.5 |
| 20260508183223 | 71 | 135 | 2.0 | 3.0 | 0.00 | 0.00 | 0.00 | 31 | 1016.5 |
| 20260508182719 | 71 | 157 | 3.0 | 4.0 | 0.00 | 0.00 | 0.00 | 30 | 1016.4 |
| 20260508182216 | 70 | 128 | 1.0 | 4.0 | 0.00 | 0.00 | 0.00 | 33 | 1016.7 |
| 20260508181712 | 70 | 167 | 2.0 | 3.0 | 0.00 | 0.00 | 0.00 | 33 | 1016.9 |
| 20260508181209 | 69 | 104 | 2.0 | 5.0 | 0.00 | 0.00 | 0.00 | 33 | 1016.8 |
| 20260508180706 | 69 | 259 | 2.0 | 4.0 | 0.00 | 0.00 | 0.00 | 32 | 1016.6 |
| 20260508180203 | 69 | 144 | 3.0 | 4.0 | 0.00 | 0.00 | 0.00 | 35 | 1016.8 |
| 20260508175659 | 68 | 218 | 1.0 | 2.0 | 0.00 | 0.00 | 0.00 | 32 | 1016.8 |
| 20260508175156 | 69 | 352 | 0.0 | 2.0 | 0.00 | 0.00 | 0.00 | 32 | 1016.8 |
| 20260508174654 | 69 | 196 | 2.0 | 5.0 | 0.00 | 0.00 | 0.00 | 32 | 1016.8 |
| 20260508174150 | 68 | 148 | 1.0 | 3.0 | 0.00 | 0.00 | 0.00 | 34 | 1016.8 |
| 20260508173647 | 68 | 168 | 3.0 | 4.0 | 0.00 | 0.00 | 0.00 | 36 | 1016.8 |
| 20260508173143 | 68 | 119 | 1.0 | 3.0 | 0.00 | 0.00 | 0.00 | 34 | 1017.0 |
| 20260508172640 | 68 | 159 | 2.0 | 5.0 | 0.00 | 0.00 | 0.00 | 32 | 1017.0 |
| 20260508172137 | 68 | 151 | 2.0 | 3.0 | 0.00 | 0.00 | 0.00 | 35 | 1017.2 |
| 20260508171633 | 68 | 157 | 3.0 | 3.0 | 0.00 | 0.00 | 0.00 | 35 | 1017.1 |
| 20260508171130 | 68 | 123 | 2.0 | 3.0 | 0.00 | 0.00 | 0.00 | 37 | 1017.2 |
| 20260508170627 | 67 | 217 | 1.0 | 3.0 | 0.00 | 0.00 | 0.00 | 37 | 1017.4 |
| 20260508170125 | 67 | 174 | 1.0 | 5.0 | 0.00 | 0.00 | 0.00 | 31 | 1017.4 |
| 20260508165622 | 67 | 187 | 3.0 | 5.0 | 0.00 | 0.00 | 0.00 | 36 | 1017.5 |
| 20260508165118 | 66 | 153 | 3.0 | 5.0 | 0.00 | 0.00 | 0.00 | 38 | 1017.4 |
| 20260508164614 | 66 | 231 | 3.0 | 3.0 | 0.00 | 0.00 | 0.00 | 38 | 1017.7 |
| 20260508164112 | 66 | 141 | 2.0 | 3.0 | 0.00 | 0.00 | 0.00 | 38 | 1017.9 |
| 20260508163609 | 66 | 127 | 2.0 | 3.0 | 0.00 | 0.00 | 0.00 | 42 | 1017.8 |
| 20260508163106 | 65 | 43 | 2.0 | 3.0 | 0.00 | 0.00 | 0.00 | 40 | 1017.9 |
| 20260508162602 | 65 | 121 | 3.0 | 3.0 | 0.00 | 0.00 | 0.00 | 41 | 1017.8 |
| 20260508162100 | 66 | 154 | 1.0 | 2.0 | 0.00 | 0.00 | 0.00 | 39 | 1018.0 |
| 20260508161556 | 65 | 88 | 0.0 | 4.0 | 0.00 | 0.00 | 0.00 | 44 | 1018.3 |
| 20260508161054 | 65 | 235 | 2.0 | 3.0 | 0.00 | 0.00 | 0.00 | 41 | 1018.1 |
| 20260508160552 | 65 | 92 | 2.0 | 3.0 | 0.00 | 0.00 | 0.00 | 43 | 1018.1 |
| 20260508160049 | 64 | 165 | 2.0 | 3.0 | 0.00 | 0.00 | 0.00 | 41 | 1018.2 |
| 20260508155546 | 64 | 125 | 1.0 | 3.0 | 0.00 | 0.00 | 0.00 | 43 | 1018.2 |
| 20260508155043 | 64 | 140 | 1.0 | 4.0 | 0.00 | 0.00 | 0.00 | 44 | 1018.7 |
| 20260508154540 | 64 | 149 | 2.0 | 4.0 | 0.00 | 0.00 | 0.00 | 45 | 1018.5 |
| 20260508154037 | 64 | 136 | 3.0 | 3.0 | 0.00 | 0.00 | 0.00 | 43 | 1018.4 |
| 20260508153533 | 63 | 138 | 1.0 | 4.0 | 0.00 | 0.00 | 0.00 | 44 | 1018.5 |
| 20260508153030 | 64 | 243 | 2.0 | 4.0 | 0.00 | 0.00 | 0.00 | 40 | 1018.9 |
| 20260508152527 | 63 | 146 | 2.0 | 3.0 | 0.00 | 0.00 | 0.00 | 40 | 1018.7 |
| 20260508152022 | 62 | 146 | 3.0 | 4.0 | 0.00 | 0.00 | 0.00 | 42 | 1018.7 |
| 20260508151520 | 62 | 254 | 0.0 | 3.0 | 0.00 | 0.00 | 0.00 | 38 | 1018.8 |
| 20260508151016 | 62 | 146 | 2.0 | 3.0 | 0.00 | 0.00 | 0.00 | 39 | 1019.0 |
| 20260508150514 | 62 | 159 | 2.0 | 2.0 | 0.00 | 0.00 | 0.00 | 39 | 1018.9 |
| 20260508150009 | 62 | 143 | 0.0 | 1.0 | 0.00 | 0.00 | 0.00 | 35 | 1019.0 |
| 20260508145506 | 62 | 169 | 2.0 | 3.0 | 0.00 | 0.00 | 0.00 | 37 | 1019.1 |
| 20260508145002 | 62 | 139 | 3.0 | 3.0 | 0.00 | 0.00 | 0.00 | 37 | 1018.9 |
| 20260508144500 | 62 | 177 | 3.0 | 4.0 | 0.00 | 0.00 | 0.00 | 35 | 1019.1 |
| 20260508143957 | 62 | 187 | 2.0 | 3.0 | 0.00 | 0.00 | 0.00 | 38 | 1019.0 |
| 20260508143455 | 62 | 127 | 0.0 | 3.0 | 0.00 | 0.00 | 0.00 | 43 | 1019.0 |
| 20260508142951 | 62 | 169 | 2.0 | 3.0 | 0.00 | 0.00 | 0.00 | 43 | 1018.9 |
| 20260508142448 | 63 | 138 | 2.0 | 3.0 | 0.00 | 0.00 | 0.00 | 44 | 1018.9 |
| 20260508141944 | 63 | 143 | 2.0 | 3.0 | 0.00 | 0.00 | 0.00 | 46 | 1019.0 |
| 20260508141441 | 62 | 164 | 1.0 | 2.0 | 0.00 | 0.00 | 0.00 | 48 | 1019.0 |
| 20260508140939 | 62 | 145 | 3.0 | 3.0 | 0.00 | 0.00 | 0.00 | 47 | 1019.1 |
| 20260508140436 | 61 | 158 | 1.0 | 3.0 | 0.00 | 0.00 | 0.00 | 51 | 1018.9 |
| 20260508135931 | 59 | 196 | 1.0 | 2.0 | 0.00 | 0.00 | 0.00 | 57 | 1018.8 |
| 20260508135428 | 57 | 185 | 1.0 | 2.0 | 0.00 | 0.00 | 0.00 | 59 | 1018.9 |
| 20260508134925 | 57 | 142 | 2.0 | 3.0 | 0.00 | 0.00 | 0.00 | 65 | 1019.1 |
| 20260508134421 | 56 | 176 | 0.0 | 2.0 | 0.00 | 0.00 | 0.00 | 65 | 1019.0 |
| 20260508133918 | 56 | 184 | 2.0 | 3.0 | 0.00 | 0.00 | 0.00 | 73 | 1019.2 |
| 20260508133416 | 55 | 137 | 2.0 | 3.0 | 0.00 | 0.00 | 0.00 | 73 | 1019.1 |
| 20260508132912 | 55 | 128 | 2.0 | 3.0 | 0.00 | 0.00 | 0.00 | 81 | 1019.2 |
| 20260508132410 | 54 | 142 | 2.0 | 2.0 | 0.00 | 0.00 | 0.00 | 86 | 1019.0 |
| 20260508131907 | 53 | 140 | 2.0 | 2.0 | 0.00 | 0.00 | 0.00 | 91 | 1019.2 |
| 20260508131402 | 52 | 148 | 2.0 | 3.0 | 0.00 | 0.00 | 0.00 | 99 | 1019.0 |